Location: Zagreb
(45.8000°N, 16.0000°E)
Time: 17:34:51
(UTC+01:00)

Vanguard 2 Rocket - Pass Details

Date: 15 December 2025
Orbit: 553 x 3287 km, 32.9° (Epoch: 17 January)

Event Time Altitude Azimuth Distance (km) Brightness Sun altitude
Rises 04:48:43 0° 187° (S) 6,856 11.4 -27.1°
Reaches altitude 10° 04:55:43 10° 171° (S) 6,110 11.3 -25.9°
Maximum altitude 05:06:34 18° 137° (SE) 5,558 11.4 -24.0°
Drops below altitude 10° 05:17:04 10° 103° (ESE) 5,954 12.2 -22.2°
Sets 05:23:33 0° 87° (E) 6,631 12.7 -21.1°
